Weather History for KHLN - December, 2013

Change the Weather History Date:

Monday, December 30, 2013

  Actual Average Record
Temperature  
Mean Temperature 38 °F 21 °F  
Max Temperature 45 °F 31 °F 54 °F (1917)
Min Temperature 30 °F 11 °F -40 °F (1880)
Degree Days  
Heating Degree Days 27 44  
Month to date heating degree days 1245 1291  
Since 1 July heating degree days 3036 3173  
Cooling Degree Days 0 0  
Month to date cooling degree days 0 0  
Year to date cooling degree days 589 406  
Moisture  
Dew Point 24 °F    
Average Humidity 58    
Maximum Humidity 75    
Minimum Humidity 41    
Precipitation  
Precipitation 0.00 in 0.01 in 0.24 in (1919)
Month to date precipitation 0.29 0.39  
Year to date precipitation 10.58 11.21  
Snow  
Snow 0.00 in 0.20 in 7.00 in (1919)
Month to date snowfall 1.2 7.1  
Since 1 July snowfall 4.7 15.9  
Snow Depth 0.00 in    
Sea Level Pressure  
Sea Level Pressure 30.16 in    
Wind  
Wind Speed 7 mph (West)    
Max Wind Speed 21 mph    
Max Gust Speed 28 mph    
Visibility 10 miles    
Events      
T = Trace of Precipitation, MM = Missing Value Source: NWS Daily Summary

Daily Weather History Graph

Daily Weather History Graph

Search for Another Location

Airport or City:

Trip Planner

Search our weather history database for the weather conditions in past years. The results will help you decide how hot, cold, wet, or windy it might be!

Date:

Astronomy

Dec. 30, 2013 Rise Set
Actual Time 8:12 AM MST 4:49 PM MST
Civil Twilight 7:37 AM MST 5:24 PM MST
Nautical Twilight 6:58 AM MST 6:02 PM MST
Astronomical Twilight 6:22 AM MST 6:39 PM MST
Moon 6:02 AM MST (12/30) 3:29 PM MST (12/30)
Length of Visible Light 9h 47m
Length of Day
8h 37m
Waning Crescent, 4% of the Moon is Illuminated
Dec 30
Waning Crescent
Jan 1
New
Jan 7
First Quarter
Jan 15
Full
Jan 23
Last Quarter

Hourly Weather History & Observations

Time (MST) Temp. Windchill Dew Point Humidity Pressure Visibility Wind Dir Wind Speed Gust Speed Precip Events Conditions
12:53 AM 33.1 °F 26.1 °F 23.0 °F 66% 30.22 in 10.0 mi WNW 8.1 mph - N/A   Mostly Cloudy
1:53 AM 30.9 °F 24.3 °F 23.0 °F 72% 30.23 in 10.0 mi West 6.9 mph - N/A   Clear
2:53 AM 33.1 °F 28.7 °F 23.0 °F 66% 30.25 in 10.0 mi North 4.6 mph - N/A   Mostly Cloudy
3:53 AM 37.9 °F 30.0 °F 24.1 °F 57% 30.23 in 10.0 mi West 12.7 mph 23.0 mph N/A   Mostly Cloudy
4:53 AM 37.9 °F 27.6 °F 24.1 °F 57% 30.21 in 10.0 mi WSW 20.7 mph 24.2 mph N/A   Clear
5:53 AM 36.0 °F 29.0 °F 24.1 °F 62% 30.24 in 10.0 mi West 9.2 mph - N/A   Clear
6:53 AM 36.0 °F - 24.1 °F 62% 30.25 in 10.0 mi Calm Calm - N/A   Scattered Clouds
7:53 AM 36.0 °F 31.1 °F 24.1 °F 62% 30.25 in 10.0 mi WSW 5.8 mph - N/A   Scattered Clouds
8:53 AM 37.0 °F 29.3 °F 24.1 °F 59% 30.25 in 10.0 mi West 11.5 mph - N/A   Clear
9:53 AM 39.9 °F 32.9 °F 24.1 °F 53% 30.25 in 10.0 mi West 11.5 mph - N/A   Clear
10:53 AM 41.0 °F 35.2 °F 23.0 °F 49% 30.23 in 10.0 mi West 9.2 mph - N/A   Clear
11:53 AM 45.0 °F 39.3 °F 23.0 °F 42% 30.18 in 10.0 mi West 11.5 mph - N/A   Clear
12:53 PM 44.1 °F - 23.0 °F 43% 30.18 in 10.0 mi Calm Calm - N/A   Clear
1:53 PM 42.1 °F 40.2 °F 24.1 °F 49% 30.17 in 10.0 mi South 3.5 mph - N/A   Clear
2:53 PM 42.1 °F 36.6 °F 24.1 °F 49% 30.14 in 10.0 mi SE 9.2 mph - N/A   Clear
3:53 PM 41.0 °F 39.0 °F 23.0 °F 49% 30.13 in 10.0 mi SW 3.5 mph - N/A   Mostly Cloudy
4:53 PM 42.1 °F 39.2 °F 23.0 °F 47% 30.11 in 10.0 mi SW 4.6 mph - N/A   Partly Cloudy
5:53 PM 36.0 °F 32.1 °F 25.0 °F 64% 30.11 in 10.0 mi NW 4.6 mph - N/A   Overcast
6:53 PM 35.1 °F 32.2 °F 25.0 °F 67% 30.09 in 10.0 mi WSW 3.5 mph - N/A   Overcast
7:53 PM 34.0 °F - 26.1 °F 73% 30.07 in 10.0 mi Calm Calm - N/A   Overcast
8:53 PM 34.0 °F 31.0 °F 26.1 °F 73% 30.06 in 10.0 mi WNW 3.5 mph - N/A   Overcast
9:53 PM 35.1 °F - 26.1 °F 70% 30.04 in 10.0 mi Calm Calm - N/A   Overcast
10:53 PM 35.1 °F 32.2 °F 27.0 °F 72% 30.03 in 10.0 mi Variable 3.5 mph - N/A   Overcast
11:53 PM 39.9 °F 33.4 °F 28.9 °F 65% 30.02 in 10.0 mi West 10.4 mph 18.4 mph N/A   Overcast